time, Switch, Flow(0), Analog(2)
yyyy/mm/dd HH:MM:SS.fff, True=FILTERED|False=TOTAL, L/min, V
2023/06/28 05:00:01.353, True, 4.641, 0.128099
2023/06/28 05:00:01.857, True, 4.977, 0.127337
2023/06/28 05:00:02.353, True, 4.715, 0.125582
2023/06/28 05:00:02.856, True, 4.642, 0.126574
2023/06/28 05:00:03.353, True, 4.717, 0.126802
2023/06/28 05:00:03.857, True, 3.986, 0.127337
2023/06/28 05:00:04.361, True, 2.983, 0.126802
2023/06/28 05:00:04.865, True, 2.319, 0.124437
2023/06/28 05:00:05.361, True, 2.021, 0.127718
2023/06/28 05:00:05.865, True, 2.326, 0.126879
2023/06/28 05:00:06.361, True, 2.018, 0.124361
2023/06/28 05:00:06.865, True, 1.990, 0.127871
2023/06/28 05:00:07.369, True, 1.989, 0.127337
2023/06/28 05:00:07.865, True, 2.026, 0.127108
2023/06/28 05:00:08.369, True, 1.988, 0.126268
2023/06/28 05:00:08.873, True, 2.318, 0.128328
2023/06/28 05:00:09.369, True, 2.022, 0.127184
2023/06/28 05:00:09.873, True, 1.990, 0.124819
2023/06/28 05:00:10.377, True, 1.991, 0.125963
2023/06/28 05:00:10.881, True, 1.988, 0.129625
2023/06/28 05:00:11.377, True, 2.359, 0.127260
2023/06/28 05:00:11.881, True, 1.990, 0.128099
2023/06/28 05:00:12.385, True, 1.990, 0.125200
2023/06/28 05:00:12.881, True, 2.024, 0.126802
2023/06/28 05:00:13.385, True, 1.987, 0.126650
2023/06/28 05:00:13.889, True, 2.321, 0.125811
2023/06/28 05:00:14.393, True, 1.990, 0.127184
2023/06/28 05:00:14.889, True, 2.022, 0.126345
2023/06/28 05:00:15.393, True, 1.990, 0.125124
2023/06/28 05:00:15.889, True, 2.022, 0.126726
2023/06/28 05:00:16.393, True, 2.321, 0.126421
2023/06/28 05:00:16.897, True, 1.990, 0.127108
2023/06/28 05:00:17.401, True, 2.324, 0.125658
2023/06/28 05:00:17.897, True, 2.019, 0.125734
2023/06/28 05:00:18.400, True, 2.323, 0.125200
2023/06/28 05:00:18.905, True, 1.989, 0.125277
2023/06/28 05:00:19.400, True, 2.021, 0.127031
2023/06/28 05:00:19.904, True, 2.325, 0.126345
2023/06/28 05:00:20.408, True, 1.989, 0.127489
2023/06/28 05:00:20.905, True, 2.356, 0.125887
2023/06/28 05:00:21.409, True, 1.992, 0.125048
2023/06/28 05:00:21.913, True, 1.987, 0.125429
2023/06/28 05:00:22.409, True, 2.022, 0.126955
2023/06/28 05:00:22.913, True, 1.990, 0.126574
2023/06/28 05:00:23.417, True, 1.989, 0.124132
2023/06/28 05:00:23.913, True, 2.022, 0.126879
2023/06/28 05:00:24.417, True, 2.321, 0.126421
2023/06/28 05:00:24.921, True, 1.990, 0.126345
2023/06/28 05:00:25.417, True, 2.359, 0.127718
2023/06/28 05:00:25.921, True, 1.990, 0.125353
2023/06/28 05:00:26.425, True, 2.322, 0.125353
2023/06/28 05:00:26.921, True, 2.021, 0.127947
2023/06/28 05:00:27.425, True, 1.990, 0.127184
2023/06/28 05:00:27.929, True, 2.321, 0.126574
2023/06/28 05:00:28.425, True, 2.022, 0.128023
2023/06/28 05:00:28.929, True, 1.990, 0.126726
2023/06/28 05:00:29.425, True, 2.359, 0.126192
2023/06/28 05:00:29.929, True, 1.989, 0.127413
2023/06/28 05:00:30.433, True, 1.990, 0.125734
2023/06/28 05:00:30.929, True, 2.359, 0.126955
2023/06/28 05:00:31.433, True, 1.989, 0.126879
2023/06/28 05:00:31.937, True, 2.321, 0.127565
2023/06/28 05:00:32.433, True, 2.021, 0.126726
2023/06/28 05:00:32.937, True, 1.990, 0.129015
2023/06/28 05:00:33.441, True, 1.990, 0.128634
2023/06/28 05:00:33.937, True, 2.022, 0.126879
2023/06/28 05:00:34.441, True, 1.990, 0.127947
2023/06/28 05:00:34.944, True, 1.992, 0.126497
2023/06/28 05:00:35.449, True, 1.989, 0.126116
2023/06/28 05:00:35.945, True, 2.023, 0.128481
2023/06/28 05:00:36.449, True, 1.987, 0.127718
2023/06/28 05:00:36.953, True, 2.321, 0.128405
2023/06/28 05:00:37.448, True, 2.022, 0.129473
2023/06/28 05:00:37.953, True, 1.990, 0.128557
2023/06/28 05:00:38.457, True, 2.321, 0.129778
2023/06/28 05:00:38.953, True, 2.022, 0.130846
2023/06/28 05:00:39.457, True, 1.990, 0.131151
2023/06/28 05:00:39.961, True, 2.321, 0.130999
2023/06/28 05:00:40.457, True, 2.022, 0.131304
2023/06/28 05:00:40.961, True, 2.321, 0.134127
2023/06/28 05:00:41.465, True, 1.990, 0.131380
2023/06/28 05:00:41.961, True, 2.022, 0.133135
2023/06/28 05:00:42.465, True, 2.321, 0.131151
2023/06/28 05:00:42.961, True, 2.022, 0.130999
2023/06/28 05:00:43.465, True, 1.989, 0.133135
2023/06/28 05:00:43.969, True, 2.321, 0.131991
2023/06/28 05:00:44.464, True, 2.022, 0.131380
2023/06/28 05:00:44.969, True, 1.990, 0.132372
2023/06/28 05:00:45.473, True, 1.991, 0.134432
2023/06/28 05:00:45.977, True, 2.319, 0.132677
2023/06/28 05:00:46.473, True, 2.022, 0.133288
2023/06/28 05:00:46.977, True, 1.990, 0.131991
2023/06/28 05:00:47.481, True, 2.321, 0.134661
2023/06/28 05:00:47.977, True, 2.022, 0.131991
2023/06/28 05:00:48.481, True, 1.990, 0.134203
2023/06/28 05:00:48.984, True, 2.321, 0.136034
2023/06/28 05:00:49.481, True, 2.022, 0.132143
2023/06/28 05:00:49.985, True, 1.990, 0.134279
2023/06/28 05:00:50.489, True, 2.323, 0.135119
2023/06/28 05:00:50.985, True, 2.020, 0.132982
2023/06/28 05:00:51.489, True, 1.990, 0.134661
2023/06/28 05:00:51.993, True, 2.321, 0.134737
2023/06/28 05:00:52.489, True, 2.021, 0.132067
2023/06/28 05:00:52.993, True, 2.321, 0.132982
2023/06/28 05:00:53.489, True, 2.022, 0.135195
2023/06/28 05:00:53.993, True, 2.321, 0.134051
2023/06/28 05:00:54.497, True, 1.990, 0.136110
2023/06/28 05:00:54.993, True, 2.022, 0.136568
2023/06/28 05:00:55.497, True, 2.321, 0.133516
2023/06/28 05:00:56.001, True, 1.990, 0.133669
2023/06/28 05:00:56.497, True, 2.022, 0.137713
2023/06/28 05:00:57.001, True, 1.992, 0.133593
2023/06/28 05:00:57.505, True, 2.319, 0.135119
2023/06/28 05:00:58.001, True, 2.022, 0.135348
2023/06/28 05:00:58.505, True, 2.321, 0.137331
2023/06/28 05:00:59.009, True, 1.989, 0.135576
2023/06/28 05:00:59.513, True, 2.326, 0.134966
2023/06/28 05:01:00.008, True, 2.018, 0.137331
2023/06/28 05:01:00.513, True, 2.321, 0.135500
2023/06/28 05:01:01.009, True, 2.022, 0.136263
2023/06/28 05:01:01.513, True, 1.990, 0.134890
2023/06/28 05:01:02.017, True, 1.990, 0.133135
2023/06/28 05:01:02.513, True, 2.359, 0.136110
2023/06/28 05:01:03.016, True, 1.991, 0.134737
2023/06/28 05:01:03.520, True, 2.319, 0.134432
2023/06/28 05:01:04.017, True, 2.022, 0.137026
2023/06/28 05:01:04.521, True, 2.321, 0.135882
2023/06/28 05:01:05.024, True, 1.989, 0.136873
2023/06/28 05:01:05.521, True, 2.022, 0.133440
2023/06/28 05:01:06.025, True, 2.321, 0.134966
2023/06/28 05:01:06.521, True, 2.022, 0.133135
2023/06/28 05:01:07.025, True, 1.993, 0.135500
2023/06/28 05:01:07.529, True, 1.986, 0.136339
2023/06/28 05:01:08.025, True, 2.022, 0.137484
2023/06/28 05:01:08.529, True, 1.990, 0.135805
2023/06/28 05:01:09.032, True, 2.321, 0.134127
2023/06/28 05:01:09.529, True, 2.022, 0.136034
2023/06/28 05:01:10.033, True, 2.320, 0.134432
2023/06/28 05:01:10.536, True, 1.990, 0.133364
2023/06/28 05:01:11.033, True, 2.022, 0.135500
2023/06/28 05:01:11.537, True, 1.990, 0.135119
2023/06/28 05:01:12.040, True, 1.990, 0.133288
2023/06/28 05:01:12.536, True, 2.022, 0.134813
2023/06/28 05:01:13.041, True, 1.991, 0.136034
2023/06/28 05:01:13.544, True, 1.988, 0.135195
2023/06/28 05:01:14.041, True, 2.022, 0.135729
2023/06/28 05:01:14.544, True, 1.990, 0.136034
2023/06/28 05:01:15.049, True, 1.990, 0.134356
2023/06/28 05:01:15.545, True, 2.022, 0.134127
2023/06/28 05:01:16.049, True, 1.991, 0.135500
2023/06/28 05:01:16.553, True, 1.988, 0.133898
2023/06/28 05:01:17.048, True, 2.022, 0.134585
2023/06/28 05:01:17.553, True, 2.321, 0.134051
2023/06/28 05:01:18.056, True, 1.990, 0.133898
2023/06/28 05:01:18.553, True, 2.023, 0.134966
2023/06/28 05:01:19.057, True, 1.660, 0.134661
2023/06/28 05:01:19.561, True, 1.986, 0.135424
2023/06/28 05:01:20.056, True, 2.021, 0.137255
2023/06/28 05:01:20.561, True, 1.990, 0.135119
2023/06/28 05:01:21.065, True, 2.321, 0.134813
2023/06/28 05:01:21.561, True, 2.022, 0.135653
2023/06/28 05:01:22.065, True, 1.991, 0.134661
2023/06/28 05:01:22.569, True, 1.988, 0.134127
2023/06/28 05:01:23.064, True, 2.022, 0.135348
2023/06/28 05:01:23.569, True, 1.992, 0.134661
2023/06/28 05:01:24.072, True, 1.987, 0.136645
2023/06/28 05:01:24.569, True, 2.022, 0.134890
2023/06/28 05:01:25.073, True, 1.992, 0.133898
2023/06/28 05:01:25.577, True, 1.990, 0.134127
2023/06/28 05:01:26.073, True, 2.358, 0.133059
2023/06/28 05:01:26.577, True, 1.987, 0.134432
2023/06/28 05:01:27.080, True, 1.989, 0.134356
2023/06/28 05:01:27.576, True, 2.024, 0.132830
2023/06/28 05:01:28.081, True, 1.988, 0.135195
2023/06/28 05:01:28.585, True, 2.320, 0.133516
2023/06/28 05:01:29.081, True, 2.022, 0.133745
2023/06/28 05:01:29.584, True, 1.989, 0.134966
2023/06/28 05:01:30.089, True, 1.993, 0.132982
2023/06/28 05:01:30.585, True, 2.018, 0.133974
2023/06/28 05:01:31.088, True, 1.989, 0.135271
2023/06/28 05:01:31.593, True, 1.990, 0.133593
2023/06/28 05:01:32.089, True, 2.022, 0.134356
2023/06/28 05:01:32.593, True, 1.989, 0.132906
2023/06/28 05:01:33.097, True, 1.990, 0.134203
2023/06/28 05:01:33.593, True, 2.022, 0.133211
2023/06/28 05:01:34.096, True, 1.992, 0.132296
2023/06/28 05:01:34.601, True, 1.988, 0.134585
2023/06/28 05:01:35.097, True, 1.685, 0.134356
2023/06/28 05:01:35.601, True, 2.320, 0.135042
2023/06/28 05:01:36.105, True, 1.991, 0.135500
2023/06/28 05:01:36.600, True, 2.024, 0.135576
2023/06/28 05:01:37.105, True, 1.986, 0.135271
2023/06/28 05:01:37.609, True, 1.990, 0.136263
2023/06/28 05:01:38.105, True, 2.359, 0.133440
2023/06/28 05:01:38.608, True, 1.990, 0.134127
2023/06/28 05:01:39.113, True, 1.990, 0.133211
2023/06/28 05:01:39.609, True, 1.687, 0.134203
2023/06/28 05:01:40.113, True, 1.988, 0.133898
2023/06/28 05:01:40.617, True, 1.989, 0.132982
2023/06/28 05:01:41.113, True, 2.022, 0.135576
2023/06/28 05:01:41.617, True, 1.990, 0.132219
2023/06/28 05:01:42.121, True, 1.990, 0.132830
2023/06/28 05:01:42.617, True, 2.022, 0.134966
2023/06/28 05:01:43.121, True, 2.321, 0.133745
2023/06/28 05:01:43.617, True, 2.024, 0.135119
2023/06/28 05:01:44.121, True, 1.987, 0.135500
2023/06/28 05:01:44.625, True, 1.990, 0.132830
2023/06/28 05:01:45.128, True, 2.321, 0.134279
2023/06/28 05:01:45.625, True, 2.022, 0.133211
2023/06/28 05:01:46.129, True, 1.990, 0.132982
2023/06/28 05:01:46.633, True, 2.321, 0.134432
2023/06/28 05:01:47.129, True, 2.026, 0.135042
2023/06/28 05:01:47.633, True, 1.986, 0.133364
2023/06/28 05:01:48.137, True, 1.990, 0.134432
2023/06/28 05:01:48.633, True, 2.022, 0.131075
2023/06/28 05:01:49.137, True, 1.990, 0.134737
2023/06/28 05:01:49.641, True, 2.321, 0.135042
2023/06/28 05:01:50.137, True, 2.026, 0.131685
2023/06/28 05:01:50.641, True, 1.986, 0.133440
2023/06/28 05:01:51.145, True, 2.321, 0.133516
2023/06/28 05:01:51.641, True, 2.022, 0.135348
2023/06/28 05:01:52.145, True, 1.990, 0.133745
2023/06/28 05:01:52.648, True, 1.990, 0.132982
2023/06/28 05:01:53.145, True, 2.022, 0.131762
2023/06/28 05:01:53.649, True, 1.990, 0.132677
2023/06/28 05:01:54.153, True, 1.993, 0.132296
2023/06/28 05:01:54.649, True, 2.018, 0.132219
2023/06/28 05:01:55.152, True, 1.990, 0.131151
2023/06/28 05:01:55.649, True, 2.022, 0.134051
2023/06/28 05:01:56.153, True, 1.658, 0.132753
2023/06/28 05:01:56.657, True, 1.989, 0.132753
2023/06/28 05:01:57.152, True, 2.025, 0.134661
2023/06/28 05:01:57.657, True, 2.317, 0.132982
2023/06/28 05:01:58.161, True, 1.990, 0.133974
2023/06/28 05:01:58.657, True, 2.022, 0.133669
2023/06/28 05:01:59.161, True, 1.990, 0.133288
2023/06/28 05:01:59.665, True, 2.321, 0.132296
2023/06/28 05:02:00.161, True, 2.021, 0.132906
2023/06/28 05:02:00.665, True, 1.990, 0.132296
2023/06/28 05:02:01.168, True, 2.321, 0.134279
2023/06/28 05:02:01.665, True, 2.022, 0.134279
2023/06/28 05:02:02.169, True, 2.321, 0.133822
2023/06/28 05:02:02.673, True, 1.990, 0.132372
2023/06/28 05:02:03.168, True, 2.025, 0.133516
2023/06/28 05:02:03.672, True, 2.320, 0.133974
2023/06/28 05:02:04.177, True, 1.987, 0.131838
2023/06/28 05:02:04.673, True, 2.022, 0.131914
2023/06/28 05:02:05.176, True, 1.990, 0.130541
2023/06/28 05:02:05.681, True, 2.322, 0.131533
2023/06/28 05:02:06.177, True, 2.021, 0.131838
2023/06/28 05:02:06.681, True, 1.990, 0.130236
2023/06/28 05:02:07.185, True, 1.990, 0.131609
2023/06/28 05:02:07.681, True, 2.359, 0.135119
2023/06/28 05:02:08.185, True, 1.990, 0.132601
2023/06/28 05:02:08.689, True, 1.990, 0.133974
2023/06/28 05:02:09.185, True, 2.359, 0.131685
2023/06/28 05:02:09.689, True, 1.990, 0.134966
2023/06/28 05:02:10.185, True, 2.022, 0.131456
2023/06/28 05:02:10.688, True, 1.990, 0.133364
2023/06/28 05:02:11.193, True, 2.321, 0.131609
2023/06/28 05:02:11.696, True, 1.658, 0.134203
2023/06/28 05:02:12.193, True, 2.022, 0.132525
2023/06/28 05:02:12.697, True, 1.990, 0.132906
2023/06/28 05:02:13.201, True, 1.990, 0.129549
2023/06/28 05:02:13.697, True, 2.022, 0.131456
2023/06/28 05:02:14.201, True, 1.990, 0.132753
2023/06/28 05:02:14.705, True, 1.990, 0.133059
2023/06/28 05:02:15.209, True, 1.990, 0.131533
2023/06/28 05:02:15.705, True, 2.021, 0.132677
2023/06/28 05:02:16.209, True, 2.321, 0.131838
2023/06/28 05:02:16.713, True, 1.990, 0.133822
2023/06/28 05:02:17.209, True, 2.358, 0.130922
2023/06/28 05:02:17.713, True, 1.990, 0.129854
2023/06/28 05:02:18.209, True, 2.024, 0.131533
2023/06/28 05:02:18.713, True, 2.318, 0.132906
2023/06/28 05:02:19.216, True, 1.990, 0.132372
2023/06/28 05:02:19.713, True, 2.022, 0.131609
2023/06/28 05:02:20.217, True, 2.324, 0.131609
2023/06/28 05:02:20.721, True, 1.987, 0.132906
2023/06/28 05:02:21.217, True, 2.022, 0.134432
2023/06/28 05:02:21.721, True, 1.990, 0.130846
2023/06/28 05:02:22.225, True, 1.990, 0.130312
2023/06/28 05:02:22.720, True, 2.359, 0.132067
2023/06/28 05:02:23.225, True, 1.989, 0.132448
2023/06/28 05:02:23.729, True, 1.990, 0.131533
2023/06/28 05:02:24.225, True, 2.022, 0.131838
2023/06/28 05:02:24.729, True, 1.990, 0.132525
2023/06/28 05:02:25.233, True, 1.990, 0.132677
2023/06/28 05:02:25.729, True, 2.021, 0.132830
2023/06/28 05:02:26.233, True, 1.990, 0.131228
2023/06/28 05:02:26.737, True, 1.989, 0.132067
2023/06/28 05:02:27.241, True, 2.325, 0.130541
2023/06/28 05:02:27.737, True, 2.018, 0.130999
2023/06/28 05:02:28.241, True, 1.992, 0.131838
2023/06/28 05:02:28.745, True, 1.987, 0.131609
2023/06/28 05:02:29.241, True, 2.023, 0.130770
2023/06/28 05:02:29.745, True, 2.320, 0.132677
2023/06/28 05:02:30.249, True, 1.990, 0.130922
2023/06/28 05:02:30.745, True, 2.021, 0.129473
2023/06/28 05:02:31.249, True, 1.990, 0.132143
2023/06/28 05:02:31.753, True, 1.991, 0.132677
2023/06/28 05:02:32.249, True, 2.020, 0.131762
2023/06/28 05:02:32.753, True, 2.321, 0.131762
2023/06/28 05:02:33.257, True, 1.990, 0.129931
2023/06/28 05:02:33.761, True, 1.990, 0.131762
2023/06/28 05:02:34.257, True, 2.022, 0.132906
2023/06/28 05:02:34.760, True, 1.993, 0.130465
2023/06/28 05:02:35.265, True, 1.986, 0.131685
2023/06/28 05:02:35.761, True, 2.021, 0.132982
2023/06/28 05:02:36.265, True, 1.990, 0.133745
2023/06/28 05:02:36.769, True, 2.321, 0.131838
2023/06/28 05:02:37.265, True, 2.022, 0.132219
2023/06/28 05:02:37.769, True, 1.990, 0.131991
2023/06/28 05:02:38.273, True, 1.658, 0.131914
2023/06/28 05:02:38.769, True, 2.022, 0.130617
2023/06/28 05:02:39.273, True, 2.321, 0.130083
2023/06/28 05:02:39.777, True, 1.990, 0.131991
2023/06/28 05:02:40.273, True, 2.022, 0.131151
2023/06/28 05:02:40.777, True, 1.991, 0.133440
2023/06/28 05:02:41.273, True, 2.357, 0.130465
2023/06/28 05:02:41.776, True, 1.990, 0.130388
2023/06/28 05:02:42.281, True, 1.990, 0.132830
2023/06/28 05:02:42.777, True, 2.359, 0.130465
2023/06/28 05:02:43.280, True, 1.990, 0.132143
2023/06/28 05:02:43.785, True, 1.990, 0.130999
2023/06/28 05:02:44.288, True, 2.321, 0.130541
2023/06/28 05:02:44.784, True, 2.022, 0.131456
2023/06/28 05:02:45.289, True, 1.990, 0.131456
2023/06/28 05:02:45.793, True, 1.990, 0.131533
2023/06/28 05:02:46.288, True, 2.022, 0.132372
2023/06/28 05:02:46.792, True, 2.321, 0.129091
2023/06/28 05:02:47.296, True, 1.990, 0.130999
2023/06/28 05:02:47.792, True, 2.022, 0.128939
2023/06/28 05:02:48.296, True, 1.990, 0.129549
2023/06/28 05:02:48.800, True, 1.990, 0.131533
2023/06/28 05:02:49.297, True, 2.022, 0.130694
2023/06/28 05:02:49.801, True, 2.321, 0.131685
2023/06/28 05:02:50.305, True, 1.990, 0.132067
2023/06/28 05:02:50.800, True, 2.022, 0.130541
2023/06/28 05:02:51.305, True, 2.325, 0.128634
2023/06/28 05:02:51.808, True, 1.987, 0.128481
2023/06/28 05:02:52.305, True, 2.025, 0.132219
2023/06/28 05:02:52.809, True, 1.989, 0.130770
2023/06/28 05:02:53.313, True, 2.323, 0.132372
2023/06/28 05:02:53.809, True, 2.018, 0.131228
2023/06/28 05:02:54.312, True, 1.994, 0.132296
2023/06/28 05:02:54.817, True, 2.319, 0.131762
2023/06/28 05:02:55.313, True, 2.024, 0.130922
2023/06/28 05:02:55.817, True, 1.986, 0.130770
2023/06/28 05:02:56.321, True, 1.990, 0.131685
2023/06/28 05:02:56.825, True, 1.990, 0.130312
2023/06/28 05:02:57.321, True, 1.685, 0.129625
2023/06/28 05:02:57.825, True, 2.320, 0.131456
2023/06/28 05:02:58.329, True, 1.658, 0.131533
2023/06/28 05:02:58.825, True, 2.023, 0.130770
2023/06/28 05:02:59.329, True, 2.320, 0.129244
2023/06/28 05:02:59.833, True, 1.991, 0.132830
2023/06/28 05:03:00.329, True, 2.021, 0.131685
2023/06/28 05:03:00.833, True, 2.320, 0.131075
2023/06/28 05:03:01.336, True, 1.990, 0.131685
2023/06/28 05:03:01.833, True, 2.359, 0.129931
2023/06/28 05:03:02.337, True, 1.991, 0.129931
2023/06/28 05:03:02.841, True, 1.988, 0.131609
2023/06/28 05:03:03.337, True, 2.359, 0.131075
2023/06/28 05:03:03.841, True, 1.990, 0.130617
2023/06/28 05:03:04.345, True, 1.990, 0.130388
2023/06/28 05:03:04.849, True, 2.321, 0.130007
2023/06/28 05:03:05.345, True, 2.022, 0.130694
2023/06/28 05:03:05.849, True, 1.990, 0.127489
2023/06/28 05:03:06.345, True, 2.022, 0.130694
2023/06/28 05:03:06.848, True, 2.321, 0.130312
2023/06/28 05:03:07.353, True, 1.990, 0.131380
2023/06/28 05:03:07.849, True, 2.022, 0.130465
2023/06/28 05:03:08.353, True, 2.320, 0.129854
2023/06/28 05:03:08.857, True, 1.990, 0.131914
2023/06/28 05:03:09.353, True, 2.021, 0.130159
2023/06/28 05:03:09.856, True, 1.990, 0.129931
2023/06/28 05:03:10.353, True, 2.022, 0.130312
2023/06/28 05:03:10.856, True, 1.989, 0.131991
2023/06/28 05:03:11.361, True, 1.990, 0.128634
2023/06/28 05:03:11.857, True, 2.022, 0.131380
2023/06/28 05:03:12.360, True, 1.990, 0.128099
2023/06/28 05:03:12.864, True, 2.321, 0.129320
2023/06/28 05:03:13.361, True, 2.022, 0.129702
2023/06/28 05:03:13.864, True, 1.990, 0.130388
2023/06/28 05:03:14.361, True, 2.358, 0.130922
2023/06/28 05:03:14.864, True, 1.990, 0.130388
2023/06/28 05:03:15.369, True, 1.994, 0.127794
2023/06/28 05:03:15.865, True, 2.018, 0.129549
2023/06/28 05:03:16.369, True, 2.321, 0.130922
2023/06/28 05:03:16.873, True, 1.989, 0.130922
2023/06/28 05:03:17.369, True, 2.022, 0.130999
2023/06/28 05:03:17.872, True, 1.990, 0.132525
2023/06/28 05:03:18.377, True, 1.990, 0.130007
2023/06/28 05:03:18.873, True, 2.022, 0.129778
2023/06/28 05:03:19.377, True, 1.990, 0.130922
2023/06/28 05:03:19.872, True, 2.359, 0.127184
2023/06/28 05:03:20.377, True, 1.989, 0.130236
2023/06/28 05:03:20.881, True, 1.990, 0.130541
2023/06/28 05:03:21.377, True, 2.025, 0.129549
2023/06/28 05:03:21.880, True, 2.317, 0.128634
2023/06/28 05:03:22.385, True, 1.990, 0.129549
2023/06/28 05:03:22.881, True, 2.022, 0.130388
2023/06/28 05:03:23.385, True, 2.321, 0.128786
2023/06/28 05:03:23.889, True, 1.992, 0.129244
2023/06/28 05:03:24.385, True, 2.020, 0.128557
2023/06/28 05:03:24.889, True, 1.991, 0.129015
2023/06/28 05:03:25.393, True, 2.318, 0.128634
2023/06/28 05:03:25.889, True, 2.022, 0.128557
2023/06/28 05:03:26.393, True, 1.990, 0.128481
2023/06/28 05:03:26.897, True, 2.321, 0.130007
2023/06/28 05:03:27.393, True, 2.022, 0.132067
2023/06/28 05:03:27.897, True, 1.992, 0.128786
2023/06/28 05:03:28.401, True, 2.319, 0.128405
2023/06/28 05:03:28.897, True, 2.021, 0.131914
2023/06/28 05:03:29.401, True, 1.990, 0.131380
2023/06/28 05:03:29.905, True, 1.990, 0.130922
2023/06/28 05:03:30.401, True, 2.358, 0.130999
2023/06/28 05:03:30.905, True, 1.990, 0.131456
2023/06/28 05:03:31.409, True, 1.990, 0.130388
2023/06/28 05:03:31.904, True, 2.022, 0.129015
2023/06/28 05:03:32.409, True, 2.321, 0.129473
2023/06/28 05:03:32.913, True, 1.990, 0.129931
2023/06/28 05:03:33.409, True, 2.025, 0.128634
2023/06/28 05:03:33.913, True, 2.318, 0.129320
2023/06/28 05:03:34.409, True, 2.022, 0.127947
2023/06/28 05:03:34.912, True, 1.993, 0.132525
2023/06/28 05:03:35.416, True, 2.317, 0.131762
2023/06/28 05:03:35.921, True, 1.990, 0.131151
2023/06/28 05:03:36.416, True, 2.026, 0.131304
2023/06/28 05:03:36.921, True, 1.985, 0.130236
2023/06/28 05:03:37.425, True, 2.321, 0.129015
2023/06/28 05:03:37.921, True, 2.022, 0.130541
2023/06/28 05:03:38.425, True, 1.990, 0.129244
2023/06/28 05:03:38.928, True, 1.993, 0.129015
2023/06/28 05:03:39.433, True, 2.318, 0.128710
2023/06/28 05:03:39.929, True, 2.024, 0.129473
2023/06/28 05:03:40.433, True, 2.318, 0.131151
2023/06/28 05:03:40.936, True, 1.990, 0.129549
2023/06/28 05:03:41.433, True, 2.022, 0.130694
2023/06/28 05:03:41.937, True, 1.992, 0.128862
2023/06/28 05:03:42.433, True, 2.019, 0.130694
2023/06/28 05:03:42.937, True, 2.321, 0.128939
2023/06/28 05:03:43.441, True, 1.990, 0.127337
2023/06/28 05:03:43.937, True, 2.025, 0.129473
2023/06/28 05:03:44.440, True, 1.987, 0.129854
2023/06/28 05:03:44.945, True, 1.990, 0.129244
2023/06/28 05:03:45.441, True, 2.359, 0.129320
2023/06/28 05:03:45.944, True, 1.990, 0.129320
2023/06/28 05:03:46.449, True, 1.990, 0.129854
2023/06/28 05:03:46.945, True, 2.022, 0.130999
2023/06/28 05:03:47.448, True, 1.989, 0.129320
2023/06/28 05:03:47.953, True, 1.990, 0.131228
2023/06/28 05:03:48.449, True, 2.025, 0.129931
2023/06/28 05:03:48.952, True, 2.317, 0.130388
2023/06/28 05:03:49.456, True, 1.658, 0.130617
2023/06/28 05:03:49.953, True, 2.022, 0.129549
2023/06/28 05:03:50.456, True, 1.988, 0.131762
2023/06/28 05:03:50.961, True, 2.322, 0.129549
2023/06/28 05:03:51.457, True, 2.023, 0.131075
2023/06/28 05:03:51.960, True, 2.319, 0.129625
2023/06/28 05:03:52.465, True, 1.991, 0.129854
2023/06/28 05:03:52.961, True, 2.020, 0.128176
2023/06/28 05:03:53.464, True, 2.321, 0.130541
2023/06/28 05:03:53.969, True, 1.992, 0.128023
2023/06/28 05:03:54.465, True, 2.022, 0.129931
2023/06/28 05:03:54.968, True, 1.987, 0.130922
2023/06/28 05:03:55.473, True, 1.990, 0.131685
2023/06/28 05:03:55.976, True, 1.990, 0.128252
2023/06/28 05:03:56.472, True, 2.359, 0.129015
2023/06/28 05:03:56.977, True, 1.993, 0.129397
2023/06/28 05:03:57.472, True, 2.359, 0.128023
2023/06/28 05:03:57.976, True, 1.986, 0.128481
2023/06/28 05:03:58.480, True, 2.322, 0.127413
2023/06/28 05:03:58.984, True, 1.989, 0.130007
2023/06/28 05:03:59.480, True, 2.359, 0.130541
2023/06/28 05:03:59.985, True, 1.990, 0.130541
2023/06/28 05:04:00.488, True, 2.321, 0.128786
2023/06/28 05:04:00.984, True, 2.022, 0.128023
2023/06/28 05:04:01.489, True, 1.990, 0.126497
2023/06/28 05:04:01.992, True, 2.323, 0.127871
2023/06/28 05:04:02.488, True, 2.020, 0.127260
2023/06/28 05:04:02.992, True, 1.990, 0.128252
2023/06/28 05:04:03.496, True, 2.322, 0.129397
2023/06/28 05:04:03.992, True, 2.021, 0.128328
2023/06/28 05:04:04.497, True, 2.321, 0.127871
2023/06/28 05:04:05.000, True, 1.990, 0.129091
2023/06/28 05:04:05.496, True, 2.022, 0.128862
2023/06/28 05:04:06.000, True, 2.321, 0.132143
2023/06/28 05:04:06.496, True, 2.022, 0.131151
2023/06/28 05:04:07.000, True, 1.989, 0.126192
2023/06/28 05:04:07.504, True, 1.990, 0.129702
2023/06/28 05:04:08.000, True, 2.022, 0.130312
2023/06/28 05:04:08.504, True, 1.658, 0.129091
2023/06/28 05:04:09.008, True, 1.990, 0.129320
2023/06/28 05:04:09.513, True, 1.990, 0.128252
2023/06/28 05:04:10.008, True, 2.022, 0.130465
2023/06/28 05:04:10.513, True, 1.990, 0.128862